Weather History for Bigfork, MN

Change the Weather History Date:

Monday, February 4, 2013

  Actual Average (KGPZ) Record (KGPZ)
Temperature  
Mean Temperature -13 °F -  
Max Temperature 8 °F 20 °F 53 °F (1991)
Min Temperature -34 °F -2 °F -38 °F (1936)
Degree Days  
Heating Degree Days 78    
Moisture  
Dew Point -16 °F    
Average Humidity 67    
Maximum Humidity 85    
Minimum Humidity 56    
Precipitation  
Precipitation 0.02 in - - ()
Sea Level Pressure  
Sea Level Pressure 29.85 in    
Wind  
Wind Speed 2 mph (South)    
Max Wind Speed 9 mph    
Max Gust Speed 16 mph    
Visibility 8 miles    
Events Snow    
Averages and records for this station are not official NWS values.
T = Trace of Precipitation, MM = Missing Value Source: NWS Daily Summary

Daily Weather History Graph

Daily Weather History Graph

Search for Another Location

Airport:

Trip Planner

Search our weather history database for the weather conditions in past years. The results will help you decide how hot, cold, wet, or windy it might be!

Date:

Astronomy

Feb. 04, 2013 Rise Set
Actual Time 7:37 AM CST 5:20 PM CST
Civil Twilight 7:04 AM CST 5:53 PM CST
Nautical Twilight 6:27 AM CST 6:30 PM CST
Astronomical Twilight 5:51 AM CST 7:06 PM CST
Moon 2:19 AM CST (2/4) 11:38 AM CST (2/4)
Length of Visible Light 10h 49m
Length of Day
9h 43m
Last Quarter, 37% of the Moon is Illuminated
Feb 4
Last Quarter
Feb 10
New
Feb 17
First Quarter
Feb 25
Full
Mar 4
Last Quarter

Hourly Weather History & Observations

Time (CST) Temp. Windchill Dew Point Humidity Pressure Visibility Wind Dir Wind Speed Gust Speed Precip Events Conditions
12:13 AM -25.6 °F - -32.8 °F 69% 29.98 in 10.0 mi Calm Calm - N/A   Clear
12:33 AM -25.6 °F - -32.8 °F 69% 29.98 in 10.0 mi Calm Calm - N/A   Clear
12:53 AM -25.6 °F - -34.6 °F 63% 29.98 in 10.0 mi Calm Calm - N/A   Clear
1:13 AM -25.6 °F - -32.8 °F 69% 29.98 in 10.0 mi Calm Calm - N/A   Clear
1:53 AM -27.4 °F - -34.6 °F 69% 29.98 in 10.0 mi Calm Calm - N/A   Clear
2:13 AM -29.2 °F - -36.4 °F 68% 29.98 in 10.0 mi Calm Calm - N/A   Clear
2:33 AM -29.2 °F - -36.4 °F 68% 29.98 in 10.0 mi Calm Calm - N/A   Clear
2:53 AM -29.2 °F - -36.4 °F 68% 29.98 in 10.0 mi Calm Calm - N/A   Clear
3:13 AM -29.2 °F - -36.4 °F 68% 29.98 in 10.0 mi Calm Calm - N/A   Clear
5:13 AM -32.8 °F - -41.8 °F 62% 29.98 in 10.0 mi Calm Calm - N/A   Clear
5:33 AM -32.8 °F - -41.8 °F 62% 29.98 in 10.0 mi Calm Calm - N/A   Clear
5:53 AM -32.8 °F - -41.8 °F 62% 29.98 in 10.0 mi Calm Calm - N/A   Clear
6:13 AM -34.6 °F - -41.8 °F 68% 29.98 in 10.0 mi Calm Calm - N/A   Clear
6:33 AM -34.6 °F - -41.8 °F 68% 29.97 in 10.0 mi Calm Calm - N/A   Clear
6:53 AM -34.6 °F - -41.8 °F 68% 29.97 in 10.0 mi Calm Calm - N/A   Clear
7:13 AM -34.6 °F - -41.8 °F 68% 29.97 in 10.0 mi Calm Calm - N/A   Clear
7:33 AM -34.6 °F - -43.6 °F 61% 29.97 in 10.0 mi Calm Calm - N/A   Clear
7:53 AM -34.6 °F - -43.6 °F 61% 29.98 in 10.0 mi Calm Calm - N/A   Clear
8:13 AM -32.8 °F - -41.8 °F 62% 29.98 in 10.0 mi Calm Calm - N/A   Clear
8:33 AM -32.8 °F - -41.8 °F 62% 29.97 in 10.0 mi Calm Calm - N/A   Clear
8:53 AM -27.4 °F - -36.4 °F 62% 29.97 in 10.0 mi Calm Calm - N/A   Clear
9:13 AM -25.6 °F - -34.6 °F 63% 29.97 in 10.0 mi Calm Calm - N/A   Clear
9:33 AM -20.2 °F -30.9 °F -27.4 °F 69% 29.97 in 10.0 mi SW 3.5 mph - N/A   Clear
9:53 AM -14.8 °F - -20.2 °F 77% 29.95 in 10.0 mi Calm Calm - N/A   Scattered Clouds
10:13 AM -9.4 °F - -16.6 °F 71% 29.96 in 10.0 mi Calm Calm - N/A   Mostly Cloudy
10:33 AM -7.6 °F - -14.8 °F 71% 29.95 in 10.0 mi Calm Calm - N/A   Overcast
10:53 AM -4.0 °F - -11.2 °F 71% 29.95 in 10.0 mi Calm Calm - N/A   Mostly Cloudy
11:13 AM -0.4 °F -10.4 °F -9.4 °F 66% 29.94 in 10.0 mi South 4.6 mph - N/A   Mostly Cloudy
11:33 AM -0.4 °F -14.7 °F -7.6 °F 72% 29.93 in 10.0 mi SSW 8.1 mph - N/A   Mostly Cloudy
11:53 AM 1.4 °F -11.3 °F -7.6 °F 66% 29.93 in 10.0 mi SSW 6.9 mph - N/A   Overcast
12:33 PM 1.4 °F -11.3 °F -7.6 °F 66% 29.90 in 10.0 mi South 6.9 mph - N/A   Scattered Clouds
12:53 PM 3.2 °F -6.2 °F -7.6 °F 61% 29.89 in 10.0 mi South 4.6 mph - N/A   Mostly Cloudy
1:13 PM 3.2 °F - -5.8 °F 66% 29.90 in 10.0 mi Calm Calm - N/A   Scattered Clouds
1:33 PM 3.2 °F -9.1 °F -5.8 °F 66% 29.89 in 10.0 mi SW 6.9 mph - N/A   Mostly Cloudy
1:53 PM 5.0 °F -5.6 °F -5.8 °F 61% 29.88 in 10.0 mi South 5.8 mph - N/A   Overcast
2:13 PM 5.0 °F -8.1 °F -5.8 °F 61% 29.87 in 10.0 mi SSW 8.1 mph - N/A   Overcast
2:33 PM 5.0 °F -9.1 °F -5.8 °F 61% 29.86 in 10.0 mi SSW 9.2 mph - N/A   Overcast
2:53 PM 6.8 °F -6.9 °F -5.8 °F 56% 29.85 in 10.0 mi SSW 9.2 mph - N/A   Overcast
3:13 PM 6.8 °F -5.9 °F -5.8 °F 56% 29.84 in 10.0 mi South 8.1 mph - N/A   Overcast
3:33 PM 6.8 °F -6.9 °F -5.8 °F 56% 29.83 in 10.0 mi South 9.2 mph - N/A   Overcast
3:53 PM 6.8 °F -4.8 °F -4.0 °F 61% 29.82 in 10.0 mi SSW 6.9 mph - N/A   Overcast
4:13 PM 6.8 °F -5.9 °F -4.0 °F 61% 29.80 in 10.0 mi South 8.1 mph - N/A   Overcast
4:33 PM 6.8 °F -4.8 °F -5.8 °F 56% 29.79 in 10.0 mi South 6.9 mph - N/A   Mostly Cloudy
4:54 PM 3.2 °F -7.8 °F -5.8 °F 66% 29.78 in 10.0 mi South 5.8 mph - N/A   Scattered Clouds
5:13 PM 5.0 °F -6.9 °F -4.0 °F 66% 29.77 in 10.0 mi South 6.9 mph - N/A   Mostly Cloudy
5:33 PM 5.0 °F -6.9 °F -5.8 °F 61% 29.77 in 10.0 mi South 6.9 mph - N/A   Overcast
5:53 PM 5.0 °F -5.6 °F -5.8 °F 61% 29.76 in 10.0 mi SSE 5.8 mph - N/A   Overcast
6:13 PM 5.0 °F -2.1 °F -5.8 °F 61% 29.75 in 10.0 mi SE 3.5 mph - N/A   Overcast
6:33 PM 5.0 °F -4.1 °F -5.8 °F 61% 29.74 in 10.0 mi SE 4.6 mph - N/A   Overcast
6:53 PM 5.0 °F -4.1 °F -5.8 °F 61% 29.72 in 10.0 mi SSE 4.6 mph - N/A   Overcast
7:13 PM 6.8 °F -3.5 °F -4.0 °F 61% 29.71 in 10.0 mi SE 5.8 mph - N/A   Overcast
7:33 PM 6.8 °F -5.9 °F -4.0 °F 61% 29.70 in 5.0 mi SSE 8.1 mph - N/A Snow Light Snow
7:53 PM 6.8 °F -4.8 °F -2.2 °F 67% 29.70 in 3.0 mi South 6.9 mph - N/A Snow Light Snow
8:13 PM 6.8 °F -5.9 °F -0.4 °F 72% 29.69 in 1.5 mi SSE 8.1 mph - N/A Snow Light Snow
8:33 PM 6.8 °F -4.8 °F 1.4 °F 79% 29.67 in 1.0 mi SSE 6.9 mph - N/A Snow Snow
8:53 PM 6.8 °F -6.9 °F 1.4 °F 79% 29.66 in 1.0 mi SSE 9.2 mph - N/A Snow Snow
9:13 PM 6.8 °F -5.9 °F 1.4 °F 79% 29.64 in 0.8 mi SSE 8.1 mph - N/A Snow Snow
9:33 PM 6.8 °F -4.8 °F 1.4 °F 79% 29.62 in 0.8 mi SSE 6.9 mph - 0.01 in Snow Snow
9:53 PM 6.8 °F -4.8 °F 1.4 °F 79% 29.60 in 1.5 mi SSE 6.9 mph - N/A Snow Light Snow
10:13 PM 6.8 °F -5.9 °F 1.4 °F 79% 29.58 in 2.0 mi SSE 8.1 mph 16.1 mph N/A Snow Light Snow
10:33 PM 8.6 °F -3.7 °F 3.2 °F 79% 29.58 in 1.0 mi South 8.1 mph - 0.01 in Snow Snow
10:53 PM 8.6 °F -3.7 °F 3.2 °F 79% 29.58 in 1.5 mi South 8.1 mph - N/A Snow Light Snow
11:13 PM 8.6 °F -2.6 °F 3.2 °F 79% 29.58 in 2.5 mi South 6.9 mph - N/A Snow Light Snow
11:33 PM 8.6 °F -1.3 °F 3.2 °F 79% 29.58 in 7.0 mi South 5.8 mph - N/A Snow Light Snow
11:53 PM 8.6 °F -2.6 °F 5.0 °F 85% 29.57 in 7.0 mi South 6.9 mph - N/A Snow Light Snow